GW4332 Weather Reports


Display with metric or nautical units.
time (UTC)temp
F
wind
direction
speed
MPH
gust
MPH
rain 1hr
in
rain 24hr
in
rain mn
in
humidity
%
barometer
mb
20260906060030 54 106 3.0 6.0 0.00 0.00 0.00 88 1026.0
20260906055030 54 110 2.0 6.0 0.00 0.00 0.00 88 1026.0
20260906054030 54 120 2.0 6.0 0.00 0.00 0.00 87 1025.9
20260906053030 54 103 3.0 6.0 0.00 0.00 0.00 87 1025.9
20260906052030 54 98 2.0 6.0 0.00 0.00 0.00 87 1025.8
20260906051030 54 101 3.0 6.0 0.00 0.00 0.00 87 1025.7
20260906050030 54 132 2.0 4.0 0.00 0.00 0.00 87 1025.7
20260906045030 54 107 3.0 6.0 0.00 0.00 0.00 87 1025.7
20260906044029 54 94 3.0 7.0 0.00 0.00 0.00 86 1025.7
20260906043030 55 94 3.0 7.0 0.00 0.00 0.00 87 1025.7
20260906042030 55 106 2.0 4.0 0.00 0.00 0.00 87 1025.7
20260906041030 55 120 2.0 4.0 0.00 0.00 0.00 86 1025.8
20260906040030 55 141 1.0 4.0 0.00 0.00 0.00 86 1025.8
20260906035029 55 123 2.0 4.0 0.00 0.00 0.00 86 1025.7
20260906034030 56 127 1.0 3.0 0.00 0.00 0.00 86 1025.8
20260906033030 56 126 1.0 3.0 0.00 0.00 0.00 86 1025.9
20260906032029 56 160 1.0 3.0 0.00 0.00 0.00 85 1026.0
20260906031030 56 191 2.0 4.0 0.00 0.00 0.00 85 1026.1
20260906030030 56 182 2.0 7.0 0.00 0.00 0.00 85 1026.3
20260906025030 56 173 1.0 4.0 0.00 0.00 0.00 85 1026.3
20260906024030 57 177 3.0 7.0 0.00 0.00 0.00 84 1026.3
20260906023030 57 181 4.0 9.0 0.00 0.00 0.00 84 1026.4
20260906022030 57 187 4.0 7.0 0.00 0.00 0.00 84 1026.4
20260906021029 57 189 4.0 6.0 0.00 0.00 0.00 84 1026.5
20260906020030 57 190 5.0 8.0 0.00 0.00 0.00 83 1026.4
20260906015030 57 202 5.0 8.0 0.00 0.00 0.00 83 1026.3
20260906014029 57 194 5.0 9.0 0.00 0.00 0.00 82 1026.3
20260906013030 57 194 4.0 9.0 0.00 0.00 0.00 82 1026.2
20260906012030 57 168 1.0 5.0 0.00 0.00 0.00 81 1026.2
20260906011029 57 179 2.0 6.0 0.00 0.00 0.00 81 1026.1
20260906010030 57 115 2.0 4.0 0.00 0.00 0.00 81 1026.1
20260906005029 57 117 1.0 3.0 0.00 0.00 0.00 81 1026.0
20260906004030 58 146 1.0 3.0 0.00 0.00 0.00 81 1026.0
20260906003030 58 181 3.0 6.0 0.00 0.00 0.00 80 1026.0
20260906002030 58 187 4.0 7.0 0.00 0.00 0.00 80 1026.3
20260906001030 58 186 5.0 9.0 0.00 0.00 0.00 79 1026.3
20260906000030 58 183 3.0 7.0 0.00 0.00 0.00 78 1026.2
20260905235030 59 187 4.0 7.0 0.00 0.00 0.00 78 1026.3
20260905234030 60 175 2.0 6.0 0.00 0.00 0.00 76 1026.2
20260905233030 60 164 2.0 7.0 0.00 0.00 0.00 77 1026.1
20260905232030 60 203 4.0 7.0 0.00 0.00 0.00 76 1026.2
20260905231030 61 210 4.0 8.0 0.00 0.00 0.00 75 1026.2
20260905230029 62 257 8.0 10.0 0.00 0.00 0.00 75 1026.0
20260905225030 62 257 10.0 13.0 0.00 0.00 0.00 74 1026.0
20260905224030 62 273 11.0 13.0 0.00 0.00 0.00 73 1025.9
20260905223030 62 279 10.0 14.0 0.00 0.00 0.00 73 1026.0
20260905222030 62 274 11.0 13.0 0.00 0.00 0.00 73 1025.9
20260905221030 62 265 11.0 14.0 0.00 0.00 0.00 73 1025.8
20260905220030 62 283 10.0 14.0 0.00 0.00 0.00 73 1025.8
20260905215030 62 282 10.0 13.0 0.00 0.00 0.00 72 1025.6
20260905214030 62 283 10.0 13.0 0.00 0.00 0.00 72 1025.8
20260905213030 62 293 10.0 12.0 0.00 0.00 0.00 72 1025.5
20260905212030 62 287 10.0 12.0 0.00 0.00 0.00 72 1025.5
20260905211030 62 300 10.0 12.0 0.00 0.00 0.00 71 1025.5
20260905210030 62 299 10.0 13.0 0.00 0.00 0.00 71 1025.4
20260905205029 62 309 10.0 14.0 0.00 0.00 0.00 72 1025.2
20260905204030 62 297 10.0 14.0 0.00 0.00 0.00 71 1025.4
20260905203029 62 313 12.0 15.0 0.00 0.00 0.00 71 1025.1
20260905202030 62 315 11.0 14.0 0.00 0.00 0.00 71 1025.3
20260905201030 62 304 12.0 15.0 0.00 0.00 0.00 70 1025.2
20260905200029 62 306 13.0 17.0 0.00 0.00 0.00 72 1025.2
20260905195030 62 307 13.0 16.0 0.00 0.00 0.00 71 1025.3
20260905194030 62 300 15.0 18.0 0.00 0.00 0.00 71 1025.2
20260905193030 63 294 15.0 19.0 0.00 0.00 0.00 71 1025.1
20260905192030 63 298 16.0 20.0 0.00 0.00 0.00 72 1024.9
20260905191030 63 296 16.0 21.0 0.00 0.00 0.00 72 1024.8
20260905190030 63 290 18.0 22.0 0.00 0.00 0.00 69 1024.7
20260905185030 63 291 18.0 26.0 0.00 0.00 0.00 69 1024.5
20260905184030 63 297 18.0 27.0 0.00 0.00 0.00 69 1024.3
20260905183030 63 282 20.0 28.0 0.00 0.00 0.00 67 1024.2
20260905182030 63 295 19.0 25.0 0.00 0.00 0.00 72 1024.2
20260905181029 63 298 19.0 23.0 0.00 0.00 0.00 72 1024.1
20260905180030 63 298 15.0 24.0 0.00 0.00 0.00 73 1023.8
20260905175030 63 302 16.0 20.0 0.00 0.00 0.00 74 1024.0
20260905174029 63 294 18.0 22.0 0.00 0.00 0.00 74 1024.0
20260905173031 63 289 19.0 23.0 0.00 0.00 0.00 75 1024.0
20260905172029 63 290 19.0 26.0 0.00 0.00 0.00 74 1023.8
20260905171030 63 292 18.0 22.0 0.00 0.00 0.00 75 1023.9
20260905170030 63 290 20.0 26.0 0.00 0.00 0.00 75 1023.8
20260905165029 63 295 19.0 26.0 0.00 0.00 0.00 73 1023.7
20260905164030 63 289 19.0 27.0 0.00 0.00 0.00 73 1023.6
20260905163030 64 283 20.0 26.0 0.00 0.00 0.00 72 1023.6
20260905162030 64 281 22.0 28.0 0.00 0.00 0.00 68 1023.4
20260905161030 64 272 22.0 29.0 0.00 0.00 0.00 68 1023.2
20260905160030 64 282 23.0 29.0 0.00 0.00 0.00 68 1023.0
20260905155029 64 287 23.0 31.0 0.00 0.00 0.00 67 1022.8
20260905154030 64 286 22.0 28.0 0.00 0.00 0.00 71 1022.9
20260905153030 64 292 22.0 28.0 0.00 0.00 0.00 71 1022.8
20260905152030 64 287 26.0 31.0 0.00 0.00 0.00 69 1022.5
20260905151030 64 277 26.0 32.0 0.00 0.00 0.00 70 1022.5
20260905150030 64 284 23.0 30.0 0.00 0.00 0.00 69 1022.3
20260905145030 64 287 20.0 26.0 0.00 0.00 0.00 72 1022.4
20260905144030 64 287 23.0 30.0 0.00 0.00 0.00 71 1022.2
20260905143030 64 286 22.0 28.0 0.00 0.00 0.00 70 1022.1
20260905142029 65 279 23.0 29.0 0.00 0.00 0.00 70 1022.1
20260905141030 65 276 26.0 32.0 0.00 0.00 0.00 68 1021.9
20260905140030 65 278 25.0 31.0 0.00 0.00 0.00 69 1021.8
20260905135029 65 274 26.0 35.0 0.00 0.00 0.00 69 1021.7
20260905134030 65 278 28.0 35.0 0.00 0.00 0.00 72 1021.6
20260905133030 65 266 24.0 32.0 0.00 0.00 0.00 71 1021.5
20260905132030 65 275 27.0 33.0 0.00 0.00 0.00 73 1021.4
20260905131030 65 274 27.0 33.0 0.00 0.00 0.00 72 1021.3
20260905130030 64 277 26.0 33.0 0.00 0.00 0.00 73 1021.3
20260905125030 64 280 27.0 32.0 0.00 0.00 0.00 72 1021.2
20260905124030 65 277 29.0 35.0 0.00 0.00 0.00 71 1021.1
20260905123030 64 262 28.0 35.0 0.00 0.00 0.00 73 1021.0
20260905122030 65 266 26.0 30.0 0.00 0.00 0.00 73 1021.0
20260905121030 64 264 27.0 35.0 0.00 0.00 0.00 72 1020.8
20260905120030 64 253 30.0 37.0 0.00 0.00 0.00 71 1020.6
20260905115030 64 271 28.0 35.0 0.00 0.00 0.00 70 1020.6
20260905114030 64 276 25.0 32.0 0.00 0.00 0.00 71 1020.6
20260905113030 64 288 22.0 29.0 0.00 0.00 0.00 73 1020.5
20260905112030 64 281 28.0 36.0 0.00 0.00 0.00 73 1020.2
20260905111030 64 270 30.0 35.0 0.00 0.00 0.00 73 1020.1
20260905110030 64 261 27.0 36.0 0.00 0.00 0.00 70 1019.8
20260905105030 64 261 28.0 33.0 0.00 0.00 0.00 74 1019.8
20260905104030 64 269 28.0 35.0 0.00 0.00 0.00 75 1019.6
20260905103030 63 255 27.0 34.0 0.00 0.00 0.00 79 1019.6
20260905102030 63 265 27.0 35.0 0.00 0.00 0.00 79 1019.3
20260905101030 63 277 28.0 34.0 0.00 0.00 0.00 82 1019.4
20260905100030 63 259 30.0 39.0 0.00 0.00 0.00 79 1019.2
20260905095030 64 252 32.0 39.0 0.00 0.00 0.00 77 1018.9
20260905094030 64 272 28.0 34.0 0.00 0.00 0.00 75 1018.9
20260905093030 64 273 29.0 35.0 0.00 0.00 0.00 73 1018.7
20260905092029 64 256 28.0 33.0 0.00 0.00 0.00 75 1018.8
20260905091030 63 265 30.0 37.0 0.00 0.00 0.00 73 1018.5
20260905090030 63 262 33.0 40.0 0.00 0.00 0.00 73 1018.3
20260905085030 64 258 33.0 40.0 0.00 0.00 0.00 78 1018.1
20260905084030 63 258 31.0 40.0 0.00 0.00 0.00 78 1017.8
20260905083030 63 259 30.0 39.0 0.00 0.00 0.00 78 1017.8
20260905082030 63 262 32.0 38.0 0.00 0.00 0.00 78 1017.4
20260905081030 63 267 32.0 40.0 0.00 0.00 0.00 79 1017.3
20260905080030 63 263 30.0 35.0 0.00 0.00 0.00 80 1017.1
20260905075030 63 260 30.0 37.0 0.00 0.00 0.00 79 1017.0
20260905074029 63 253 28.0 36.0 0.00 0.00 0.00 79 1016.8
20260905073030 63 255 26.0 33.0 0.00 0.00 0.00 80 1016.7
20260905072030 63 260 28.0 34.0 0.00 0.00 0.00 79 1016.5
20260905071030 63 257 29.0 36.0 0.00 0.00 0.00 80 1016.4
20260905070030 63 255 26.0 35.0 0.00 0.00 0.00 79 1016.4
20260905065030 63 244 22.0 30.0 0.00 0.00 0.00 81 1016.4
20260905064030 63 244 22.0 29.0 0.00 0.00 0.00 81 1016.4
20260905063029 63 257 22.0 29.0 0.00 0.00 0.00 81 1016.3
20260905062030 63 240 20.0 28.0 0.00 0.00 0.00 82 1016.3
20260905061030 63 221 19.0 24.0 0.00 0.00 0.00 82 1016.3